This is the latest recevied weather packets stored in our database for station/object AF9W-5. If no packets are shown the sender has not sent any weather packets the latest 1 day(s).
| Time | Temp. | Humidity | Pressure | Rain* | Wind** | Luminosity | Snow |
|---|---|---|---|---|---|---|---|
| 1778104000 | 25.56° C | 22% | 1014 hPa | 0 mm | - | 687 W/m² | - |
| 1778103396 | 24.44° C | 22% | 1014.1 hPa | 0 mm | - | 714 W/m² | - |
| 1778102790 | 25° C | 22% | 1013.7 hPa | 0 mm | - | 727 W/m² | - |
| 1778100361 | 23.89° C | 21% | 1014.6 hPa | 0 mm | - | 797 W/m² | - |
| 1778099756 | 24.44° C | 22% | 1014.5 hPa | 0 mm | - | 812 W/m² | - |
| 1778099452 | 23.89° C | 24% | 1014.5 hPa | 0 mm | - | 823 W/m² | - |
| 1778099150 | 23.33° C | 24% | 1014.5 hPa | 0 mm | - | 834 W/m² | - |
| 1778097936 | 24.44° C | 24% | 1014.8 hPa | 0 mm | - | 846 W/m² | - |
| 1778097633 | 23.89° C | 22% | 1014.8 hPa | 0 mm | - | 851 W/m² | - |
| 1778097330 | 23.89° C | 22% | 1014.8 hPa | 0 mm | - | 856 W/m² | - |
| 1778093994 | 22.22° C | 25% | 1015.4 hPa | 0 mm | - | 859 W/m² | - |
| 1778093388 | 23.33° C | 26% | 1015.5 hPa | 0 mm | - | 854 W/m² | - |
| 1778092478 | 21.67° C | 26% | 1015.7 hPa | 0 mm | - | 845 W/m² | - |
| 1778090964 | 21.11° C | 29% | 1015.9 hPa | 0 mm | - | 825 W/m² | - |
| 1778089751 | 21.67° C | 30% | 1016.2 hPa | 0 mm | - | 794 W/m² | - |
| 1778089146 | 20.56° C | 30% | 1016.2 hPa | 0 mm | - | 781 W/m² | - |
| 1778088236 | 20.56° C | 29% | 1016.2 hPa | 0 mm | - | 754 W/m² | - |
| 1778086717 | 20° C | 32% | 1016.1 hPa | 0 mm | - | 699 W/m² | - |
| 1778086415 | 19.44° C | 34% | 1015.9 hPa | 0 mm | - | 688 W/m² | - |
| 1778086111 | 20.56° C | 34% | 1015.6 hPa | 0 mm | - | 675 W/m² | - |
| 1778085808 | 19.44° C | 36% | 1015.8 hPa | 0 mm | - | 656 W/m² | - |
| 1778085505 | 19.44° C | 35% | 1015.7 hPa | 0 mm | - | 645 W/m² | - |
| 1778084895 | 18.89° C | 36% | 1015.9 hPa | 0 mm | - | 618 W/m² | - |
| 1778083376 | 18.33° C | 36% | 1015.5 hPa | 0 mm | - | 547 W/m² | - |
| 1778083075 | 18.33° C | 37% | 1015.5 hPa | 0 mm | - | 530 W/m² | - |
* Rain latest hour (hover to see other rain measurements)
** Current wind speed in m/s (hover to see current wind gust speed)